User: anonymous   Login
Location: �clusier
(49.9361°N, 2.7869°E)
Time: 02:56:42
(UTC+00:00)
Language:

Lacrosse 5 rocket - Orbit

View from above orbital plane
View from above orbital plane
View from above satellite
View from above satellite

Ground track
Ground track

The orbit data is extracted from the following two-line orbital elements,

1 28647U 05016B   21264.07862948  .00000191  00000-0  29186-4 0  9999
2 28647  56.9974 166.4880 0118528 254.2214 104.5728 15.06569437129361
Epoch (UTC): 21 September 2021 01:53:13
Eccentricity: 0.0118528
inclination: 56.9974°
perigee height: 464 km
apogee height: 629 km
right ascension of ascending node: 166.4880°
argument of perigee: 254.2214°
revolutions per day: 15.06569437
mean anomaly at epoch: 104.5728°
orbit number at epoch: 12936

The dashed part of the orbit path shows where the satellite is in the earth's shadow,  

DLR